Voltar ao catálogo

STARLINK-4045

AtivoComunicaçõesVLEO
NORAD 53152·PAYLOAD·🇺🇸 United States

Lançado Jul 17, 2022 de Cape Canaveral Space Force Station

Loading…

Próximas Passagens (próximas 24 horas)

TLE

AtualizadoSource: CelesTrak SupGP

Época: Sep 15, 2026, 01:35 UTC

1 53152C 22083W   26258.06645833  .00601520  00000+0  70591-3 0  2585
2 53152  53.2120 341.2576 0001538  52.7406  33.6573 16.07630663    16

Acompanhe STARLINK-4045 em tempo real com AllMySat

Download on the App Store